Weather in Leninskoye

Russia / Amur Oblast     49°15′22″N   129°57′00″E
temp.,
°C
wind,
m/s
gust,
m/s
humid.,
%
clouds,
%
prec.,
mm/h
press.,
hPa
HPBL,
m
26 february, fri
fri2600:00−24nw339476 0.0 103023
03:00−24nw339386 0.0 102937
06:00−26nw339740 0.0 103124
09:00−23wnw359645 0.0 1031143
12:00−18nw45916 0.0 1032334
15:00−15nw368712 0.0 1031487
18:00−18wnw349323 0.0 103326
21:00−22nw229639 0.0 103420
27 february, sat
sat2700:00−23wsw019692 0.0 103420
03:00−23se239680 0.0 103320
06:00−21ese479598 0.0 1031158
09:00−16se6118299 0.0 1027327
12:00−10se101677100 0.0 1022646
15:00−8sse121870100 0.0 1017745
18:00−10sse111881100 0.0 1016566
21:00−10se91592100 0.6 1015412
28 february, sun
sun2800:00−9sse5696100 1.6 1015171
03:00−6wnw61189100 1.8 1017539
06:00−13nw61185100 0.0 1021414
09:00−16nw498367 0.0 1024273
12:00−13nw69750 0.0 1025789
15:00−13nw69760 0.0 1026819
18:00−17nw45830 0.0 102881
21:00−21nw33860 0.0 103123
1 march, mon
mon100:00−24wnw34880 0.0 103325
03:00−25wnw33850 0.0 103420
06:00−25nw228665 0.0 103520
09:00−21wsw019283 0.0 1035115
12:00−18nw4688100 0.1 1034751
15:00−17nw5775100 0.2 10341031
18:00−22nw33822 0.0 103421
21:00−25w22801 0.0 103520
2 march, tue
tue200:00−27sse11820 0.0 103519
03:00−27se12870 0.0 103419
06:00−27sse239289 0.0 103419
09:00−23se239895 0.1 1032111
12:00−17e1188100 0.1 1030375
15:00−15nne2283100 0.1 1028369
18:00−21ene119528 0.0 102820
21:00−19se238946 0.0 102829